Location: ???????
(55.4362°N, 38.1183°E)
Time: 18:05:51
(UTC+00:00)

Cosmos 1455 - Pass Details

Date: 17 June 2021
Orbit: 496 x 522 km, 82.5° (Epoch: 29 July)

Event Time Altitude Azimuth Distance (km) Brightness Sun altitude
Rises 21:37:20 0° 336° (NNW) 2,656 7.1 -11.1°
Reaches altitude 10° 21:40:02 10° 317° (NW) 1,758 5.6 -11.1°
Maximum altitude 21:42:35 17° 275° (W) 1,356 4.3 -11.1°
Drops below altitude 10° 21:45:06 10° 233° (SW) 1,738 4.5 -11.1°
Enters shadow 21:45:35 - 228° (SW) 1,877 4.6 -11.1°
